Time,TemperatureF,DewpointF,PressureIn,WindDirection,WindDirectionDegrees,WindSpeedMPH,WindSpeedGustMPH,Humidity,HourlyPrecipIn,Conditions,Clouds,dailyrainin,SoftwareType,DateUTC
2013-04-04 00:00:00,30.7,18.5,30.26,North,360,1.0,4.0,60,0.00,,FEW250,0.00,VWS V14.01,2013-04-04 05:00:00,
2013-04-04 00:01:00,30.7,18.5,30.26,North,360,1.0,4.0,60,0.00,,SCT250,0.00,VWS V14.01,2013-04-04 05:01:00,
2013-04-04 00:05:00,30.7,18.9,30.26,SW,222,0.0,3.0,61,0.00,,FEW250,0.00,VWS V14.01,2013-04-04 05:05:00,
2013-04-04 00:06:00,30.7,18.9,30.25,SW,221,1.0,3.0,61,0.00,,SCT250,0.00,VWS V14.01,2013-04-04 05:06:00,
2013-04-04 00:10:00,30.6,18.8,30.25,SW,221,0.0,2.0,61,0.00,,FEW250,0.00,VWS V14.01,2013-04-04 05:10:00,
2013-04-04 00:12:00,30.5,18.7,30.25,SW,221,0.0,2.0,61,0.00,,SCT250,0.00,VWS V14.01,2013-04-04 05:12:00,
2013-04-04 00:15:00,30.5,18.7,30.25,North,360,0.0,2.0,61,0.00,,FEW250,0.00,VWS V14.01,2013-04-04 05:15:00,
2013-04-04 00:17:00,30.4,18.6,30.25,SW,224,0.0,2.0,61,0.00,,SCT250,0.00,VWS V14.01,2013-04-04 05:17:00,
2013-04-04 00:20:00,30.4,18.6,30.25,SW,225,0.0,2.0,61,0.00,,FEW250,0.00,VWS V14.01,2013-04-04 05:20:00,
2013-04-04 00:22:00,30.3,18.5,30.25,SW,226,0.0,3.0,61,0.00,,SCT250,0.00,VWS V14.01,2013-04-04 05:22:00,
2013-04-04 00:25:00,30.3,18.5,30.25,SW,227,0.0,3.0,61,0.00,,FEW250,0.00,VWS V14.01,2013-04-04 05:25:00,
2013-04-04 00:28:00,30.3,18.9,30.25,SW,227,1.0,3.0,62,0.00,,SCT250,0.00,VWS V14.01,2013-04-04 05:28:00,
2013-04-04 00:30:00,30.3,18.9,30.25,SW,227,0.0,3.0,62,0.00,,FEW250,0.00,VWS V14.01,2013-04-04 05:30:00,
2013-04-04 00:33:00,30.2,18.8,30.25,WSW,237,3.0,5.0,62,0.00,,SCT250,0.00,VWS V14.01,2013-04-04 05:33:00,
2013-04-04 00:35:00,30.2,18.8,30.25,SW,236,0.0,5.0,62,0.00,,FEW250,0.00,VWS V14.01,2013-04-04 05:35:00,
2013-04-04 00:38:00,30.3,18.9,30.25,SW,228,2.0,5.0,62,0.00,,SCT250,0.00,VWS V14.01,2013-04-04 05:38:00,
2013-04-04 00:40:00,30.2,18.8,30.25,SW,229,1.0,5.0,62,0.00,,FEW250,0.00,VWS V14.01,2013-04-04 05:40:00,
2013-04-04 00:43:00,30.2,18.8,30.24,SW,223,0.0,5.0,62,0.00,,SCT250,0.00,VWS V14.01,2013-04-04 05:43:00,
2013-04-04 00:45:00,30.2,18.8,30.24,SW,219,0.0,5.0,62,0.00,,FEW250,0.00,VWS V14.01,2013-04-04 05:45:00,
2013-04-04 00:49:00,30.0,18.6,30.24,SSW,212,3.0,5.0,62,0.00,,SCT250,0.00,VWS V14.01,2013-04-04 05:49:00,
2013-04-04 00:50:00,30.0,18.6,30.24,North,360,1.0,4.0,62,0.00,,FEW250,0.00,VWS V14.01,2013-04-04 05:50:00,
2013-04-04 00:54:00,29.9,18.1,30.24,North,360,3.0,6.0,61,0.00,,SCT250,0.00,VWS V14.01,2013-04-04 05:54:00,
2013-04-04 00:55:00,29.9,18.1,30.24,North,360,1.0,6.0,61,0.00,,FEW250,0.00,VWS V14.01,2013-04-04 05:55:00,
2013-04-04 00:59:00,30.1,17.9,30.24,North,360,3.0,6.0,60,0.00,,SCT250,0.00,VWS V14.01,2013-04-04 05:59:00,
2013-04-04 01:00:00,30.1,17.9,30.24,North,360,3.0,6.0,60,0.00,,FEW250,0.00,VWS V14.01,2013-04-04 06:00:00,
2013-04-04 01:04:00,30.2,17.6,30.24,SSW,204,4.0,6.0,59,0.00,,CLR,0.00,VWS V14.01,2013-04-04 06:04:00,
2013-04-04 01:05:00,30.2,17.6,30.24,SSW,204,4.0,6.0,59,0.00,,SCT250,0.00,VWS V14.01,2013-04-04 06:05:00,
2013-04-04 01:09:00,30.2,17.6,30.23,SSW,201,2.0,7.0,59,0.00,,CLR,0.00,VWS V14.01,2013-04-04 06:09:00,
2013-04-04 01:10:00,30.2,17.6,30.23,SSW,201,2.0,7.0,59,0.00,,SCT250,0.00,VWS V14.01,2013-04-04 06:10:00,
2013-04-04 01:15:00,30.2,17.2,30.23,North,360,2.0,7.0,58,0.00,,CLR,0.00,VWS V14.01,2013-04-04 06:15:00,
2013-04-04 01:20:00,30.2,16.8,30.23,North,360,6.0,8.0,57,0.00,,CLR,0.00,VWS V14.01,2013-04-04 06:20:00,
2013-04-04 01:25:00,30.2,16.4,30.22,SSW,192,6.0,8.0,56,0.00,,CLR,0.00,VWS V14.01,2013-04-04 06:25:00,
2013-04-04 01:30:00,30.3,16.5,30.22,SSW,205,7.0,8.0,56,0.00,,CLR,0.00,VWS V14.01,2013-04-04 06:30:00,
2013-04-04 01:35:00,30.2,16.0,30.22,North,360,5.0,8.0,55,0.00,,FEW250,0.00,VWS V14.01,2013-04-04 06:35:00,
2013-04-04 01:36:00,30.2,16.4,30.22,North,360,4.0,8.0,56,0.00,,CLR,0.00,VWS V14.01,2013-04-04 06:36:00,
2013-04-04 01:40:00,30.1,15.9,30.22,North,360,4.0,8.0,55,0.00,,FEW250,0.00,VWS V14.01,2013-04-04 06:40:00,
2013-04-04 01:41:00,30.1,15.9,30.22,North,360,5.0,9.0,55,0.00,,CLR,0.00,VWS V14.01,2013-04-04 06:41:00,
2013-04-04 01:45:00,30.0,15.8,30.22,North,360,6.0,9.0,55,0.00,,FEW250,0.00,VWS V14.01,2013-04-04 06:45:00,
2013-04-04 01:46:00,30.1,15.5,30.22,North,360,4.0,8.0,54,0.00,,CLR,0.00,VWS V14.01,2013-04-04 06:46:00,
2013-04-04 01:50:00,30.1,15.5,30.21,North,360,6.0,10.0,54,0.00,,FEW250,0.00,VWS V14.01,2013-04-04 06:50:00,
2013-04-04 01:51:00,30.1,15.1,30.21,North,360,7.0,10.0,53,0.00,,CLR,0.00,VWS V14.01,2013-04-04 06:51:00,
2013-04-04 01:55:00,30.1,15.1,30.21,SW,216,5.0,8.0,53,0.00,,FEW250,0.00,VWS V14.01,2013-04-04 06:55:00,
2013-04-04 01:57:00,30.2,14.7,30.21,SSW,194,7.0,9.0,52,0.00,,CLR,0.00,VWS V14.01,2013-04-04 06:57:00,
2013-04-04 02:00:00,30.3,14.8,30.21,North,360,3.0,9.0,52,0.00,,FEW250,0.00,VWS V14.01,2013-04-04 07:00:00,
2013-04-04 02:02:00,30.3,14.8,30.21,South,191,3.0,7.0,52,0.00,,CLR,0.00,VWS V14.01,2013-04-04 07:02:00,
2013-04-04 02:05:00,30.3,14.4,30.21,SSW,205,3.0,7.0,51,0.00,,FEW250,0.00,VWS V14.01,2013-04-04 07:05:00,
2013-04-04 02:07:00,30.3,14.8,30.21,South,190,0.0,4.0,52,0.00,,CLR,0.00,VWS V14.01,2013-04-04 07:07:00,
2013-04-04 02:10:00,30.3,14.4,30.21,SW,217,4.0,4.0,51,0.00,,FEW250,0.00,VWS V14.01,2013-04-04 07:10:00,
2013-04-04 02:12:00,30.2,14.3,30.21,SW,218,0.0,6.0,51,0.00,,CLR,0.00,VWS V14.01,2013-04-04 07:12:00,
2013-04-04 02:15:00,30.2,14.3,30.20,North,360,0.0,6.0,51,0.00,,FEW250,0.00,VWS V14.01,2013-04-04 07:15:00,
2013-04-04 02:17:00,30.1,14.2,30.20,SSW,192,1.0,5.0,51,0.00,,CLR,0.00,VWS V14.01,2013-04-04 07:17:00,
2013-04-04 02:20:00,30.1,14.2,30.20,North,360,5.0,5.0,51,0.00,,FEW250,0.00,VWS V14.01,2013-04-04 07:20:00,
2013-04-04 02:23:00,30.0,14.1,30.20,SSW,194,5.0,7.0,51,0.00,,CLR,0.00,VWS V14.01,2013-04-04 07:23:00,
2013-04-04 02:25:00,30.1,13.7,30.20,North,360,7.0,9.0,50,0.00,,FEW250,0.00,VWS V14.01,2013-04-04 07:25:00,
2013-04-04 02:28:00,30.4,13.1,30.20,North,360,7.0,11.0,48,0.00,,CLR,0.00,VWS V14.01,2013-04-04 07:28:00,
2013-04-04 02:30:00,30.5,13.2,30.19,North,360,7.0,11.0,48,0.00,,FEW250,0.00,VWS V14.01,2013-04-04 07:30:00,
2013-04-04 02:33:00,30.6,12.8,30.19,North,360,8.0,11.0,47,0.00,,CLR,0.00,VWS V14.01,2013-04-04 07:33:00,
2013-04-04 02:35:00,30.7,12.4,30.19,North,360,6.0,11.0,46,0.00,,SCT250,0.00,VWS V14.01,2013-04-04 07:35:00,
2013-04-04 02:38:00,30.7,12.4,30.19,North,360,7.0,10.0,46,0.00,,CLR,0.00,VWS V14.01,2013-04-04 07:38:00,
2013-04-04 02:40:00,30.7,12.4,30.19,North,360,4.0,10.0,46,0.00,,FEW250,0.00,VWS V14.01,2013-04-04 07:40:00,
2013-04-04 02:43:00,30.8,12.5,30.19,North,360,1.0,10.0,46,0.00,,CLR,0.00,VWS V14.01,2013-04-04 07:43:00,
2013-04-04 02:45:00,30.7,12.4,30.19,North,360,4.0,10.0,46,0.00,,FEW250,0.00,VWS V14.01,2013-04-04 07:45:00,
2013-04-04 02:48:00,30.6,11.8,30.19,North,360,7.0,8.0,45,0.00,,CLR,0.00,VWS V14.01,2013-04-04 07:48:00,
2013-04-04 02:50:00,30.6,11.8,30.19,North,360,8.0,10.0,45,0.00,,FEW250,0.00,VWS V14.01,2013-04-04 07:50:00,
2013-04-04 02:53:00,30.7,11.9,30.18,North,360,7.0,8.0,45,0.00,,CLR,0.00,VWS V14.01,2013-04-04 07:53:00,
2013-04-04 02:55:00,30.7,11.4,30.18,North,360,5.0,8.0,44,0.00,,FEW250,0.00,VWS V14.01,2013-04-04 07:55:00,
2013-04-04 02:59:00,30.7,11.4,30.18,North,360,2.0,9.0,44,0.00,,CLR,0.00,VWS V14.01,2013-04-04 07:59:00,
2013-04-04 03:00:00,30.7,11.4,30.18,SSW,203,3.0,9.0,44,0.00,,FEW250,0.00,VWS V14.01,2013-04-04 08:00:00,
2013-04-04 03:04:00,30.7,11.4,30.18,North,360,2.0,8.0,44,0.00,,CLR,0.00,VWS V14.01,2013-04-04 08:04:00,
2013-04-04 03:05:00,30.7,11.4,30.18,North,360,3.0,8.0,44,0.00,,FEW250,0.00,VWS V14.01,2013-04-04 08:05:00,
2013-04-04 03:09:00,30.7,11.4,30.18,SSW,209,4.0,10.0,44,0.00,,CLR,0.00,VWS V14.01,2013-04-04 08:09:00,
2013-04-04 03:10:00,30.8,11.5,30.18,North,360,2.0,10.0,44,0.00,,FEW250,0.00,VWS V14.01,2013-04-04 08:10:00,
2013-04-04 03:15:00,30.7,11.4,30.18,North,360,4.0,7.0,44,0.00,,CLR,0.00,VWS V14.01,2013-04-04 08:15:00,
2013-04-04 03:20:00,30.8,11.0,30.17,SSW,205,4.0,10.0,43,0.00,,CLR,0.00,VWS V14.01,2013-04-04 08:20:00,
2013-04-04 03:25:00,30.8,11.0,30.17,North,360,8.0,9.0,43,0.00,,CLR,0.00,VWS V14.01,2013-04-04 08:25:00,
2013-04-04 03:30:00,31.0,10.6,30.17,North,360,7.0,9.0,42,0.00,,CLR,0.00,VWS V14.01,2013-04-04 08:30:00,
2013-04-04 03:35:00,31.0,10.6,30.17,SSW,196,3.0,9.0,42,0.00,,CLR,0.00,VWS V14.01,2013-04-04 08:35:00,
2013-04-04 03:40:00,31.0,10.6,30.17,SSW,205,4.0,7.0,42,0.00,,FEW250,0.00,VWS V14.01,2013-04-04 08:40:00,
2013-04-04 03:41:00,31.0,10.6,30.17,North,360,4.0,6.0,42,0.00,,CLR,0.00,VWS V14.01,2013-04-04 08:41:00,
2013-04-04 03:45:00,30.9,10.5,30.17,SSW,212,3.0,7.0,42,0.00,,FEW250,0.00,VWS V14.01,2013-04-04 08:45:00,
2013-04-04 03:46:00,30.8,10.4,30.17,North,360,5.0,7.0,42,0.00,,CLR,0.00,VWS V14.01,2013-04-04 08:46:00,
2013-04-04 03:50:00,30.8,10.4,30.17,North,360,4.0,6.0,42,0.00,,FEW250,0.00,VWS V14.01,2013-04-04 08:50:00,
2013-04-04 03:51:00,30.8,10.4,30.17,North,360,4.0,8.0,42,0.00,,CLR,0.00,VWS V14.01,2013-04-04 08:51:00,
2013-04-04 03:55:00,30.8,10.4,30.17,South,184,4.0,8.0,42,0.00,,FEW250,0.00,VWS V14.01,2013-04-04 08:55:00,
2013-04-04 03:57:00,30.9,10.5,30.17,North,360,3.0,8.0,42,0.00,,CLR,0.00,VWS V14.01,2013-04-04 08:57:00,
2013-04-04 04:00:00,30.9,11.1,30.17,North,360,2.0,8.0,43,0.00,,FEW250,0.00,VWS V14.01,2013-04-04 09:00:00,
2013-04-04 04:02:00,30.9,11.1,30.17,North,360,1.0,5.0,43,0.00,,CLR,0.00,VWS V14.01,2013-04-04 09:02:00,
2013-04-04 04:05:00,30.8,11.0,30.17,North,360,3.0,4.0,43,0.00,,FEW250,0.00,VWS V14.01,2013-04-04 09:05:00,
2013-04-04 04:07:00,30.8,11.0,30.17,North,360,6.0,7.0,43,0.00,,CLR,0.00,VWS V14.01,2013-04-04 09:07:00,
2013-04-04 04:10:00,30.7,10.9,30.17,SSW,205,5.0,7.0,43,0.00,,FEW250,0.00,VWS V14.01,2013-04-04 09:10:00,
2013-04-04 04:12:00,30.7,11.4,30.17,North,360,3.0,7.0,44,0.00,,CLR,0.00,VWS V14.01,2013-04-04 09:12:00,
2013-04-04 04:15:00,30.7,11.4,30.16,North,360,6.0,8.0,44,0.00,,FEW250,0.00,VWS V14.01,2013-04-04 09:15:00,
2013-04-04 04:18:00,30.8,11.0,30.16,North,360,3.0,8.0,43,0.00,,CLR,0.00,VWS V14.01,2013-04-04 09:18:00,
2013-04-04 04:20:00,30.9,11.6,30.16,North,360,4.0,8.0,44,0.00,,FEW250,0.00,VWS V14.01,2013-04-04 09:20:00,
2013-04-04 04:23:00,30.9,11.6,30.16,North,360,0.0,6.0,44,0.00,,CLR,0.00,VWS V14.01,2013-04-04 09:23:00,
2013-04-04 04:25:00,30.9,11.6,30.16,North,360,1.0,6.0,44,0.00,,FEW250,0.00,VWS V14.01,2013-04-04 09:25:00,
2013-04-04 04:28:00,31.0,11.7,30.16,North,360,2.0,4.0,44,0.00,,CLR,0.00,VWS V14.01,2013-04-04 09:28:00,
2013-04-04 04:30:00,31.0,12.2,30.16,SSW,201,4.0,4.0,45,0.00,,FEW250,0.00,VWS V14.01,2013-04-04 09:30:00,
2013-04-04 04:34:00,31.0,12.2,30.16,North,360,2.0,5.0,45,0.00,,CLR,0.00,VWS V14.01,2013-04-04 09:34:00,
2013-04-04 04:35:00,30.9,12.1,30.16,South,191,3.0,5.0,45,0.00,,FEW250,0.00,VWS V14.01,2013-04-04 09:35:00,
2013-04-04 04:39:00,30.9,12.6,30.16,North,360,0.0,7.0,46,0.00,,CLR,0.00,VWS V14.01,2013-04-04 09:39:00,
2013-04-04 04:40:00,30.9,12.6,30.16,North,360,2.0,7.0,46,0.00,,FEW250,0.00,VWS V14.01,2013-04-04 09:40:00,
2013-04-04 04:44:00,31.0,13.1,30.16,North,360,2.0,5.0,47,0.00,,CLR,0.00,VWS V14.01,2013-04-04 09:44:00,
2013-04-04 04:45:00,30.9,13.1,30.16,North,360,3.0,5.0,47,0.00,,FEW250,0.00,VWS V14.01,2013-04-04 09:45:00,
2013-04-04 04:49:00,31.0,13.1,30.15,SW,215,0.0,3.0,47,0.00,,CLR,0.00,VWS V14.01,2013-04-04 09:49:00,
2013-04-04 04:50:00,31.0,13.1,30.15,SW,215,0.0,3.0,47,0.00,,FEW250,0.00,VWS V14.01,2013-04-04 09:50:00,
2013-04-04 04:54:00,31.0,13.6,30.15,North,360,0.0,4.0,48,0.00,,CLR,0.00,VWS V14.01,2013-04-04 09:54:00,
2013-04-04 04:55:00,31.0,13.6,30.15,North,360,0.0,4.0,48,0.00,,FEW250,0.00,VWS V14.01,2013-04-04 09:55:00,
2013-04-04 04:59:00,31.0,14.1,30.15,SW,214,0.0,4.0,49,0.00,,CLR,0.00,VWS V14.01,2013-04-04 09:59:00,
2013-04-04 05:00:00,31.0,14.1,30.15,SW,214,0.0,4.0,49,0.00,,FEW250,0.00,VWS V14.01,2013-04-04 10:00:00,
2013-04-04 05:05:00,31.0,14.6,30.16,SW,216,0.0,3.0,50,0.00,,CLR,0.00,VWS V14.01,2013-04-04 10:05:00,
2013-04-04 05:10:00,30.8,14.8,30.16,North,360,3.0,4.0,51,0.00,,CLR,0.00,VWS V14.01,2013-04-04 10:10:00,
2013-04-04 05:15:00,30.8,15.3,30.15,North,360,4.0,5.0,52,0.00,,CLR,0.00,VWS V14.01,2013-04-04 10:15:00,
2013-04-04 05:20:00,30.9,15.4,30.15,North,360,0.0,5.0,52,0.00,,FEW250,0.00,VWS V14.01,2013-04-04 10:20:00,
2013-04-04 05:21:00,31.0,15.4,30.15,SW,224,1.0,5.0,52,0.00,,CLR,0.00,VWS V14.01,2013-04-04 10:21:00,
2013-04-04 05:25:00,31.0,15.9,30.15,SW,220,1.0,3.0,53,0.00,,FEW250,0.00,VWS V14.01,2013-04-04 10:25:00,
2013-04-04 05:26:00,31.0,15.9,30.15,WSW,244,4.0,8.0,53,0.00,,CLR,0.00,VWS V14.01,2013-04-04 10:26:00,
2013-04-04 05:30:00,31.0,15.9,30.15,SW,230,0.0,8.0,53,0.00,,FEW250,0.00,VWS V14.01,2013-04-04 10:30:00,
2013-04-04 05:31:00,30.9,15.8,30.15,WSW,241,1.0,4.0,53,0.00,,CLR,0.00,VWS V14.01,2013-04-04 10:31:00,
2013-04-04 05:35:00,30.9,16.2,30.15,North,360,2.0,4.0,54,0.00,,FEW250,0.00,VWS V14.01,2013-04-04 10:35:00,
2013-04-04 05:36:00,30.8,16.1,30.15,SW,224,2.0,7.0,54,0.00,,CLR,0.00,VWS V14.01,2013-04-04 10:36:00,
2013-04-04 05:40:00,30.7,16.0,30.15,SW,225,3.0,7.0,54,0.00,,FEW250,0.00,VWS V14.01,2013-04-04 10:40:00,
2013-04-04 05:41:00,30.6,16.4,30.15,South,190,2.0,5.0,55,0.00,,CLR,0.00,VWS V14.01,2013-04-04 10:41:00,
2013-04-04 05:45:00,30.7,16.5,30.15,North,360,5.0,7.0,55,0.00,,FEW250,0.00,VWS V14.01,2013-04-04 10:45:00,
2013-04-04 05:47:00,30.7,16.5,30.15,North,360,3.0,7.0,55,0.00,,CLR,0.00,VWS V14.01,2013-04-04 10:47:00,
2013-04-04 05:50:00,30.8,16.5,30.15,North,360,5.0,6.0,55,0.00,,FEW250,0.00,VWS V14.01,2013-04-04 10:50:00,
2013-04-04 05:52:00,30.7,16.5,30.15,North,360,1.0,6.0,55,0.00,,CLR,0.00,VWS V14.01,2013-04-04 10:52:00,
2013-04-04 05:55:00,30.7,16.5,30.15,North,360,3.0,6.0,55,0.00,,FEW250,0.00,VWS V14.01,2013-04-04 10:55:00,
2013-04-04 05:57:00,30.7,16.5,30.15,SW,219,3.0,6.0,55,0.00,,CLR,0.00,VWS V14.01,2013-04-04 10:57:00,
2013-04-04 06:00:00,30.7,16.9,30.15,North,360,2.0,6.0,56,0.00,,FEW250,0.00,VWS V14.01,2013-04-04 11:00:00,
2013-04-04 06:02:00,30.7,16.9,30.15,SW,232,0.0,5.0,56,0.00,,FEW250,0.00,VWS V14.01,2013-04-04 11:02:00,
2013-04-04 06:05:00,30.7,16.9,30.15,SW,228,1.0,5.0,56,0.00,,FEW250,0.00,VWS V14.01,2013-04-04 11:05:00,
2013-04-04 06:08:00,30.7,16.9,30.15,SW,229,3.0,5.0,56,0.00,,FEW250,0.00,VWS V14.01,2013-04-04 11:08:00,
2013-04-04 06:10:00,30.7,16.9,30.15,SW,229,0.0,5.0,56,0.00,,FEW250,0.00,VWS V14.01,2013-04-04 11:10:00,
2013-04-04 06:13:00,30.7,16.9,30.14,WSW,242,1.0,7.0,56,0.00,,FEW250,0.00,VWS V14.01,2013-04-04 11:13:00,
2013-04-04 06:15:00,30.7,16.9,30.14,SW,225,4.0,7.0,56,0.00,,FEW250,0.00,VWS V14.01,2013-04-04 11:15:00,
2013-04-04 06:18:00,30.6,16.8,30.14,SW,224,4.0,5.0,56,0.00,,FEW250,0.00,VWS V14.01,2013-04-04 11:18:00,
2013-04-04 06:20:00,30.5,16.7,30.14,SW,223,1.0,5.0,56,0.00,,FEW250,0.00,VWS V14.01,2013-04-04 11:20:00,
2013-04-04 06:23:00,30.5,16.7,30.14,North,360,2.0,8.0,56,0.00,,FEW250,0.00,VWS V14.01,2013-04-04 11:23:00,
2013-04-04 06:25:00,30.5,16.7,30.14,North,360,3.0,8.0,56,0.00,,FEW250,0.00,VWS V14.01,2013-04-04 11:25:00,
2013-04-04 06:29:00,30.4,17.0,30.14,North,360,3.0,7.0,57,0.00,,FEW250,0.00,VWS V14.01,2013-04-04 11:29:00,
2013-04-04 06:30:00,30.5,17.1,30.14,North,360,3.0,7.0,57,0.00,,FEW250,0.00,VWS V14.01,2013-04-04 11:30:00,
2013-04-04 06:34:00,30.6,17.2,30.14,WSW,251,2.0,7.0,57,0.00,,FEW250,0.00,VWS V14.01,2013-04-04 11:34:00,
2013-04-04 06:35:00,30.6,17.2,30.14,WSW,251,2.0,7.0,57,0.00,,FEW250,0.00,VWS V14.01,2013-04-04 11:35:00,
2013-04-04 06:39:00,30.7,17.3,30.14,North,360,1.0,9.0,57,0.00,,FEW250,0.00,VWS V14.01,2013-04-04 11:39:00,
2013-04-04 06:40:00,30.7,17.3,30.14,North,360,1.0,9.0,57,0.00,,FEW250,0.00,VWS V14.01,2013-04-04 11:40:00,
2013-04-04 06:44:00,30.9,17.9,30.14,WSW,240,7.0,8.0,58,0.00,,FEW250,0.00,VWS V14.01,2013-04-04 11:44:00,
2013-04-04 06:45:00,30.9,17.9,30.14,North,360,5.0,8.0,58,0.00,,FEW250,0.00,VWS V14.01,2013-04-04 11:45:00,
2013-04-04 06:50:00,31.1,18.1,30.13,SW,227,7.0,10.0,58,0.00,,FEW250,0.00,VWS V14.01,2013-04-04 11:50:00,
2013-04-04 06:55:00,31.5,18.4,30.13,North,360,4.0,11.0,58,0.00,,FEW250,0.00,VWS V14.01,2013-04-04 11:55:00,
2013-04-04 07:00:00,31.8,18.7,30.13,SSE,157,8.0,10.0,58,0.00,,FEW250,0.00,VWS V14.01,2013-04-04 12:00:00,
2013-04-04 07:05:00,32.2,19.1,30.13,North,360,2.0,11.0,58,0.00,,SCT250,0.00,VWS V14.01,2013-04-04 12:05:00,
2013-04-04 07:10:00,32.5,19.0,30.13,North,360,6.0,11.0,57,0.00,,FEW250,0.00,VWS V14.01,2013-04-04 12:10:00,
2013-04-04 07:11:00,32.6,19.1,30.12,North,360,6.0,11.0,57,0.00,,SCT250,0.00,VWS V14.01,2013-04-04 12:11:00,
2013-04-04 07:15:00,32.8,19.7,30.12,North,360,1.0,11.0,58,0.00,,FEW250,0.00,VWS V14.01,2013-04-04 12:15:00,
2013-04-04 07:16:00,33.0,19.4,30.12,North,360,9.0,11.0,57,0.00,,SCT250,0.00,VWS V14.01,2013-04-04 12:16:00,
2013-04-04 07:20:00,33.3,19.7,30.12,North,360,8.0,14.0,57,0.00,,FEW250,0.00,VWS V14.01,2013-04-04 12:20:00,
2013-04-04 07:21:00,33.5,19.9,30.13,North,360,7.0,14.0,57,0.00,,SCT250,0.00,VWS V14.01,2013-04-04 12:21:00,
2013-04-04 07:25:00,33.7,20.1,30.13,South,180,6.0,15.0,57,0.00,,FEW250,0.00,VWS V14.01,2013-04-04 12:25:00,
2013-04-04 07:26:00,33.9,19.9,30.12,North,360,7.0,17.0,56,0.00,,SCT250,0.00,VWS V14.01,2013-04-04 12:26:00,
2013-04-04 07:30:00,34.1,20.1,30.13,North,360,8.0,17.0,56,0.00,,FEW250,0.00,VWS V14.01,2013-04-04 12:30:00,
2013-04-04 07:31:00,34.3,20.2,30.12,SSW,208,4.0,16.0,56,0.00,,SCT250,0.00,VWS V14.01,2013-04-04 12:31:00,
2013-04-04 07:35:00,34.5,20.4,30.12,North,360,5.0,15.0,56,0.00,,FEW250,0.00,VWS V14.01,2013-04-04 12:35:00,
2013-04-04 07:37:00,34.7,20.6,30.12,North,360,8.0,13.0,56,0.00,,SCT250,0.00,VWS V14.01,2013-04-04 12:37:00,
2013-04-04 07:40:00,34.9,20.4,30.12,SW,231,8.0,18.0,55,0.00,,FEW250,0.00,VWS V14.01,2013-04-04 12:40:00,
2013-04-04 07:42:00,35.0,20.5,30.12,North,360,9.0,18.0,55,0.00,,SCT250,0.00,VWS V14.01,2013-04-04 12:42:00,
2013-04-04 07:45:00,35.2,20.7,30.12,North,360,11.0,15.0,55,0.00,,FEW250,0.00,VWS V14.01,2013-04-04 12:45:00,
2013-04-04 07:47:00,35.5,21.0,30.12,North,360,4.0,15.0,55,0.00,,SCT250,0.00,VWS V14.01,2013-04-04 12:47:00,
2013-04-04 07:50:00,35.6,21.0,30.12,SW,230,12.0,15.0,55,0.00,,FEW250,0.00,VWS V14.01,2013-04-04 12:50:00,
2013-04-04 07:52:00,35.9,20.9,30.12,North,360,9.0,14.0,54,0.00,,SCT250,0.00,VWS V14.01,2013-04-04 12:52:00,
2013-04-04 07:55:00,36.0,21.0,30.12,North,360,9.0,14.0,54,0.00,,FEW250,0.00,VWS V14.01,2013-04-04 12:55:00,
2013-04-04 07:57:00,36.3,21.3,30.11,North,360,9.0,15.0,54,0.00,,SCT250,0.00,VWS V14.01,2013-04-04 12:57:00,
2013-04-04 08:00:00,36.4,21.4,30.11,North,360,11.0,15.0,54,0.00,,FEW250,0.00,VWS V14.01,2013-04-04 13:00:00,
2013-04-04 08:03:00,36.7,21.2,30.11,SW,226,12.0,21.0,53,0.00,,FEW250,0.00,VWS V14.01,2013-04-04 13:03:00,
2013-04-04 08:05:00,36.8,21.3,30.11,North,360,9.0,21.0,53,0.00,,FEW250,0.00,VWS V14.01,2013-04-04 13:05:00,
2013-04-04 08:09:00,37.1,21.6,30.11,South,186,9.0,18.0,53,0.00,,FEW250,0.00,VWS V14.01,2013-04-04 13:09:00,
2013-04-04 08:10:00,37.1,21.6,30.11,North,360,3.0,18.0,53,0.00,,FEW250,0.00,VWS V14.01,2013-04-04 13:10:00,
2013-04-04 08:14:00,37.5,21.5,30.11,North,360,11.0,16.0,52,0.00,,FEW250,0.00,VWS V14.01,2013-04-04 13:14:00,
2013-04-04 08:15:00,37.5,21.5,30.11,North,360,11.0,16.0,52,0.00,,FEW250,0.00,VWS V14.01,2013-04-04 13:15:00,
2013-04-04 08:20:00,38.2,22.1,30.11,WSW,257,8.0,13.0,52,0.00,,FEW250,0.00,VWS V14.01,2013-04-04 13:20:00,
2013-04-04 08:25:00,38.6,22.0,30.10,SSE,165,12.0,17.0,51,0.00,,FEW250,0.00,VWS V14.01,2013-04-04 13:25:00,
2013-04-04 08:30:00,39.1,22.0,30.10,SSW,202,13.0,13.0,50,0.00,,FEW250,0.00,VWS V14.01,2013-04-04 13:30:00,
2013-04-04 08:35:00,39.6,22.0,30.10,South,188,17.0,17.0,49,0.00,,FEW250,0.00,VWS V14.01,2013-04-04 13:35:00,
2013-04-04 08:40:00,39.8,21.7,30.10,SSW,205,6.0,19.0,48,0.00,,FEW250,0.00,VWS V14.01,2013-04-04 13:40:00,
2013-04-04 08:41:00,40.0,21.9,30.09,SW,223,6.0,19.0,48,0.00,,FEW250,0.00,VWS V14.01,2013-04-04 13:41:00,
2013-04-04 08:45:00,40.4,22.3,30.09,North,360,7.0,22.0,48,0.00,,FEW250,0.00,VWS V14.01,2013-04-04 13:45:00,
2013-04-04 08:46:00,40.5,21.9,30.09,North,360,8.0,22.0,47,0.00,,FEW250,0.00,VWS V14.01,2013-04-04 13:46:00,
2013-04-04 08:50:00,40.7,22.1,30.09,North,360,13.0,21.0,47,0.00,,FEW250,0.00,VWS V14.01,2013-04-04 13:50:00,
2013-04-04 08:52:00,40.9,21.7,30.09,North,360,9.0,21.0,46,0.00,,FEW250,0.00,VWS V14.01,2013-04-04 13:52:00,
2013-04-04 08:55:00,41.1,21.9,30.09,SSE,153,8.0,20.0,46,0.00,,FEW250,0.00,VWS V14.01,2013-04-04 13:55:00,
2013-04-04 08:57:00,41.3,22.1,30.08,North,360,8.0,19.0,46,0.00,,FEW250,0.00,VWS V14.01,2013-04-04 13:57:00,
2013-04-04 09:00:00,41.3,22.1,30.08,North,360,15.0,20.0,46,0.00,,FEW250,0.00,VWS V14.01,2013-04-04 14:00:00,
2013-04-04 09:02:00,41.5,22.3,30.08,SW,223,12.0,21.0,46,0.00,,FEW250,0.00,VWS V14.01,2013-04-04 14:02:00,
2013-04-04 09:05:00,41.6,21.9,30.08,North,360,8.0,19.0,45,0.00,,FEW250,0.00,VWS V14.01,2013-04-04 14:05:00,
2013-04-04 09:08:00,41.7,21.9,30.08,SW,229,7.0,22.0,45,0.00,,FEW250,0.00,VWS V14.01,2013-04-04 14:08:00,
2013-04-04 09:10:00,41.8,22.0,30.08,SSE,163,7.0,22.0,45,0.00,,FEW250,0.00,VWS V14.01,2013-04-04 14:10:00,
2013-04-04 09:13:00,42.3,22.5,30.08,WSW,240,6.0,16.0,45,0.00,,FEW250,0.00,VWS V14.01,2013-04-04 14:13:00,
2013-04-04 09:15:00,42.4,22.6,30.08,North,360,8.0,14.0,45,0.00,,FEW250,0.00,VWS V14.01,2013-04-04 14:15:00,
2013-04-04 09:18:00,42.8,23.0,30.07,WSW,240,14.0,17.0,45,0.00,,FEW250,0.00,VWS V14.01,2013-04-04 14:18:00,
2013-04-04 09:20:00,42.9,22.5,30.07,SSE,150,12.0,17.0,44,0.00,,FEW250,0.00,VWS V14.01,2013-04-04 14:20:00,
2013-04-04 09:23:00,43.1,22.7,30.07,North,360,10.0,19.0,44,0.00,,FEW250,0.00,VWS V14.01,2013-04-04 14:23:00,
2013-04-04 09:25:00,43.1,22.7,30.07,North,360,6.0,18.0,44,0.00,,FEW250,0.00,VWS V14.01,2013-04-04 14:25:00,
2013-04-04 09:29:00,43.8,23.3,30.07,SSE,161,7.0,16.0,44,0.00,,FEW250,0.00,VWS V14.01,2013-04-04 14:29:00,
2013-04-04 09:30:00,43.8,23.3,30.07,North,360,9.0,16.0,44,0.00,,FEW250,0.00,VWS V14.01,2013-04-04 14:30:00,
2013-04-04 09:34:00,44.0,23.0,30.07,North,360,17.0,21.0,43,0.00,,FEW250,0.00,VWS V14.01,2013-04-04 14:34:00,
2013-04-04 09:35:00,44.0,23.0,30.07,North,360,15.0,21.0,43,0.00,,FEW250,0.00,VWS V14.01,2013-04-04 14:35:00,
2013-04-04 09:39:00,44.3,22.7,30.07,North,360,10.0,24.0,42,0.00,,FEW250,0.00,VWS V14.01,2013-04-04 14:39:00,
2013-04-04 09:40:00,44.3,22.7,30.07,North,360,10.0,24.0,42,0.00,,FEW250,0.00,VWS V14.01,2013-04-04 14:40:00,
2013-04-04 09:44:00,45.1,22.8,30.06,North,360,9.0,22.0,41,0.00,,FEW250,0.00,VWS V14.01,2013-04-04 14:44:00,
2013-04-04 09:45:00,45.0,22.7,30.07,SSE,158,9.0,22.0,41,0.00,,FEW250,0.00,VWS V14.01,2013-04-04 14:45:00,
2013-04-04 09:50:00,45.5,23.2,30.06,North,360,4.0,21.0,41,0.00,,FEW250,0.00,VWS V14.01,2013-04-04 14:50:00,
2013-04-04 09:55:00,46.3,22.7,30.06,North,360,8.0,19.0,39,0.00,,FEW250,0.00,VWS V14.01,2013-04-04 14:55:00,
2013-04-04 10:00:00,46.4,22.2,30.06,SSE,161,12.0,24.0,38,0.00,,FEW250,0.00,VWS V14.01,2013-04-04 15:00:00,
2013-04-04 10:05:00,46.6,21.7,30.05,SW,229,17.0,24.0,37,0.00,,FEW250,0.00,VWS V14.01,2013-04-04 15:05:00,
2013-04-04 10:10:00,46.5,22.3,30.05,North,360,13.0,24.0,38,0.00,,FEW250,0.00,VWS V14.01,2013-04-04 15:10:00,
2013-04-04 10:15:00,46.9,22.0,30.05,North,360,7.0,20.0,37,0.00,,FEW250,0.00,VWS V14.01,2013-04-04 15:15:00,
2013-04-04 10:16:00,47.0,22.1,30.05,North,360,14.0,21.0,37,0.00,,FEW250,0.00,VWS V14.01,2013-04-04 15:16:00,
2013-04-04 10:20:00,47.1,22.2,30.05,North,360,10.0,27.0,37,0.00,,FEW250,0.00,VWS V14.01,2013-04-04 15:20:00,
2013-04-04 10:21:00,47.2,22.3,30.05,WSW,254,9.0,27.0,37,0.00,,FEW250,0.00,VWS V14.01,2013-04-04 15:21:00,
2013-04-04 10:25:00,47.6,22.6,30.05,SSW,197,15.0,22.0,37,0.00,,FEW250,0.00,VWS V14.01,2013-04-04 15:25:00,
2013-04-04 10:26:00,47.6,22.6,30.05,SW,236,19.0,22.0,37,0.00,,FEW250,0.00,VWS V14.01,2013-04-04 15:26:00,
2013-04-04 10:30:00,47.9,22.2,30.05,SW,218,16.0,21.0,36,0.00,,FEW250,0.00,VWS V14.01,2013-04-04 15:30:00,
2013-04-04 10:31:00,48.1,22.4,30.05,SW,236,19.0,21.0,36,0.00,,FEW250,0.00,VWS V14.01,2013-04-04 15:31:00,
2013-04-04 10:35:00,48.1,22.4,30.05,North,360,14.0,25.0,36,0.00,,FEW250,0.00,VWS V14.01,2013-04-04 15:35:00,
2013-04-04 10:36:00,48.2,22.5,30.04,North,360,19.0,25.0,36,0.00,,FEW250,0.00,VWS V14.01,2013-04-04 15:36:00,
2013-04-04 10:40:00,48.3,22.6,30.04,North,360,12.0,24.0,36,0.00,,FEW250,0.00,VWS V14.01,2013-04-04 15:40:00,
2013-04-04 10:42:00,48.4,22.7,30.04,SSW,211,7.0,22.0,36,0.00,,FEW250,0.00,VWS V14.01,2013-04-04 15:42:00,
2013-04-04 10:45:00,48.6,22.2,30.04,SSW,213,14.0,25.0,35,0.00,,FEW250,0.00,VWS V14.01,2013-04-04 15:45:00,
2013-04-04 10:47:00,48.6,22.9,30.04,North,360,11.0,25.0,36,0.00,,FEW250,0.00,VWS V14.01,2013-04-04 15:47:00,
2013-04-04 10:50:00,48.6,22.9,30.04,North,360,15.0,21.0,36,0.00,,FEW250,0.00,VWS V14.01,2013-04-04 15:50:00,
2013-04-04 10:52:00,48.5,23.4,30.04,North,360,6.0,23.0,37,0.00,,FEW250,0.00,VWS V14.01,2013-04-04 15:52:00,
2013-04-04 10:55:00,48.7,23.0,30.04,North,360,11.0,23.0,36,0.00,,FEW250,0.00,VWS V14.01,2013-04-04 15:55:00,
2013-04-04 10:57:00,49.0,23.2,30.04,SSW,192,17.0,23.0,36,0.00,,FEW250,0.00,VWS V14.01,2013-04-04 15:57:00,
2013-04-04 11:00:00,49.1,23.3,30.04,WSW,242,10.0,23.0,36,0.00,,FEW250,0.00,VWS V14.01,2013-04-04 16:00:00,
2013-04-04 11:03:00,49.4,24.2,30.04,North,360,4.0,22.0,37,0.00,,FEW230,0.00,VWS V14.01,2013-04-04 16:03:00,
2013-04-04 11:05:00,49.4,24.2,30.04,North,360,5.0,25.0,37,0.00,,FEW250,0.00,VWS V14.01,2013-04-04 16:05:00,
2013-04-04 11:08:00,49.2,24.7,30.04,WSW,245,4.0,24.0,38,0.00,,FEW230,0.00,VWS V14.01,2013-04-04 16:08:00,
2013-04-04 11:10:00,49.3,24.8,30.04,North,360,25.0,25.0,38,0.00,,FEW250,0.00,VWS V14.01,2013-04-04 16:10:00,
2013-04-04 11:13:00,49.3,23.5,30.04,SW,231,9.0,23.0,36,0.00,,FEW230,0.00,VWS V14.01,2013-04-04 16:13:00,
2013-04-04 11:15:00,49.2,23.4,30.04,North,360,12.0,23.0,36,0.00,,FEW250,0.00,VWS V14.01,2013-04-04 16:15:00,
2013-04-04 11:19:00,49.5,23.7,30.04,SSE,165,17.0,19.0,36,0.00,,FEW230,0.00,VWS V14.01,2013-04-04 16:19:00,
2013-04-04 11:20:00,49.5,23.7,30.04,SSW,201,16.0,25.0,36,0.00,,FEW250,0.00,VWS V14.01,2013-04-04 16:20:00,
2013-04-04 11:24:00,49.6,25.0,30.04,North,360,18.0,24.0,38,0.00,,FEW230,0.00,VWS V14.01,2013-04-04 16:24:00,
2013-04-04 11:25:00,49.6,25.0,30.04,North,360,13.0,24.0,38,0.00,,FEW250,0.00,VWS V14.01,2013-04-04 16:25:00,
2013-04-04 11:29:00,50.2,25.0,30.03,SW,228,6.0,19.0,37,0.00,,FEW230,0.00,VWS V14.01,2013-04-04 16:29:00,
2013-04-04 11:30:00,50.2,25.0,30.03,SW,228,6.0,19.0,37,0.00,,FEW250,0.00,VWS V14.01,2013-04-04 16:30:00,
2013-04-04 11:34:00,50.4,25.1,30.03,North,360,12.0,21.0,37,0.00,,FEW230,0.00,VWS V14.01,2013-04-04 16:34:00,
2013-04-04 11:35:00,50.4,25.1,30.03,West,263,21.0,21.0,37,0.00,,FEW250,0.00,VWS V14.01,2013-04-04 16:35:00,
2013-04-04 11:40:00,50.3,25.0,30.03,SSW,205,7.0,20.0,37,0.00,,FEW230,0.00,VWS V14.01,2013-04-04 16:40:00,
2013-04-04 11:45:00,50.3,24.4,30.03,SW,223,12.0,23.0,36,0.00,,FEW230,0.00,VWS V14.01,2013-04-04 16:45:00,
2013-04-04 11:50:00,50.3,25.0,30.02,SW,221,15.0,20.0,37,0.00,,FEW230,0.00,VWS V14.01,2013-04-04 16:50:00,
2013-04-04 11:55:00,50.7,25.4,30.02,North,360,9.0,22.0,37,0.00,,FEW230,0.00,VWS V14.01,2013-04-04 16:55:00,
2013-04-04 12:00:00,50.9,25.6,30.02,SSW,203,14.0,18.0,37,0.00,,FEW250,0.00,VWS V14.01,2013-04-04 17:00:00,
2013-04-04 12:01:00,50.8,24.8,30.02,North,360,12.0,21.0,36,0.00,,FEW250,0.00,VWS V14.01,2013-04-04 17:01:00,
2013-04-04 12:05:00,50.9,25.6,30.01,North,360,6.0,19.0,37,0.00,,FEW250,0.00,VWS V14.01,2013-04-04 17:05:00,
2013-04-04 12:06:00,51.1,25.8,30.01,North,360,8.0,21.0,37,0.00,,FEW250,0.00,VWS V14.01,2013-04-04 17:06:00,
2013-04-04 12:10:00,51.3,25.9,30.01,North,360,19.0,21.0,37,0.00,,FEW250,0.00,VWS V14.01,2013-04-04 17:10:00,
2013-04-04 12:11:00,51.4,26.0,30.01,North,360,9.0,23.0,37,0.00,,FEW250,0.00,VWS V14.01,2013-04-04 17:11:00,
2013-04-04 12:15:00,51.5,26.1,30.01,North,360,11.0,23.0,37,0.00,,FEW250,0.00,VWS V14.01,2013-04-04 17:15:00,
2013-04-04 12:16:00,51.4,26.0,30.01,SSW,209,8.0,22.0,37,0.00,,FEW250,0.00,VWS V14.01,2013-04-04 17:16:00,
2013-04-04 12:20:00,51.7,26.3,30.00,West,263,9.0,22.0,37,0.00,,FEW250,0.00,VWS V14.01,2013-04-04 17:20:00,
2013-04-04 12:21:00,52.1,27.3,30.00,North,360,8.0,16.0,38,0.00,,FEW250,0.00,VWS V14.01,2013-04-04 17:21:00,
2013-04-04 12:25:00,52.4,26.9,30.00,North,360,6.0,17.0,37,0.00,,FEW250,0.00,VWS V14.01,2013-04-04 17:25:00,
2013-04-04 12:27:00,52.7,26.5,30.00,SW,232,7.0,17.0,36,0.00,,FEW250,0.00,VWS V14.01,2013-04-04 17:27:00,
2013-04-04 12:30:00,52.9,27.4,30.00,North,360,2.0,17.0,37,0.00,,FEW250,0.00,VWS V14.01,2013-04-04 17:30:00,
2013-04-04 12:32:00,52.8,27.3,30.00,SW,227,13.0,20.0,37,0.00,,FEW250,0.00,VWS V14.01,2013-04-04 17:32:00,
2013-04-04 12:35:00,52.8,27.3,30.00,SSW,212,4.0,20.0,37,0.00,,FEW250,0.00,VWS V14.01,2013-04-04 17:35:00,
2013-04-04 12:37:00,52.9,28.0,29.99,North,360,11.0,19.0,38,0.00,,FEW250,0.00,VWS V14.01,2013-04-04 17:37:00,
2013-04-04 12:40:00,53.1,27.5,29.99,WSW,252,3.0,19.0,37,0.00,,FEW250,0.00,VWS V14.01,2013-04-04 17:40:00,
2013-04-04 12:42:00,53.3,27.0,29.99,SW,221,3.0,17.0,36,0.00,,FEW250,0.00,VWS V14.01,2013-04-04 17:42:00,
2013-04-04 12:45:00,53.3,27.7,29.99,WSW,255,7.0,17.0,37,0.00,,FEW250,0.00,VWS V14.01,2013-04-04 17:45:00,
2013-04-04 12:48:00,54.0,29.0,29.99,WSW,250,5.0,15.0,38,0.00,,FEW250,0.00,VWS V14.01,2013-04-04 17:48:00,
2013-04-04 12:50:00,54.2,29.2,29.99,SW,231,3.0,15.0,38,0.00,,FEW250,0.00,VWS V14.01,2013-04-04 17:50:00,
2013-04-04 12:53:00,54.5,28.1,29.99,West,266,8.0,24.0,36,0.00,,FEW250,0.00,VWS V14.01,2013-04-04 17:53:00,
2013-04-04 12:55:00,54.4,28.0,29.99,North,360,10.0,24.0,36,0.00,,FEW250,0.00,VWS V14.01,2013-04-04 17:55:00,
2013-04-04 12:58:00,53.5,27.2,29.99,WSW,249,14.0,23.0,36,0.00,,FEW250,0.00,VWS V14.01,2013-04-04 17:58:00,
2013-04-04 13:00:00,53.4,27.8,29.99,North,360,7.0,23.0,37,0.00,,FEW250,0.00,VWS V14.01,2013-04-04 18:00:00,
2013-04-04 13:04:00,53.6,28.0,29.98,West,268,11.0,18.0,37,0.00,,FEW250,0.00,VWS V14.01,2013-04-04 18:04:00,
2013-04-04 13:05:00,53.6,28.0,29.98,West,269,11.0,18.0,37,0.00,,FEW250,0.00,VWS V14.01,2013-04-04 18:05:00,
2013-04-04 13:09:00,54.4,28.7,29.98,North,360,9.0,20.0,37,0.00,,FEW250,0.00,VWS V14.01,2013-04-04 18:09:00,
2013-04-04 13:10:00,54.4,28.7,29.98,North,360,9.0,20.0,37,0.00,,FEW250,0.00,VWS V14.01,2013-04-04 18:10:00,
2013-04-04 13:14:00,54.4,28.0,29.97,North,360,13.0,19.0,36,0.00,,FEW250,0.00,VWS V14.01,2013-04-04 18:14:00,
2013-04-04 13:15:00,54.4,28.0,29.97,North,360,13.0,19.0,36,0.00,,FEW250,0.00,VWS V14.01,2013-04-04 18:15:00,
2013-04-04 13:19:00,54.5,28.1,29.97,West,268,14.0,15.0,36,0.00,,FEW250,0.00,VWS V14.01,2013-04-04 18:19:00,
2013-04-04 13:20:00,54.5,28.1,29.97,West,268,14.0,15.0,36,0.00,,FEW250,0.00,VWS V14.01,2013-04-04 18:20:00,
2013-04-04 13:25:00,54.1,28.4,29.97,WSW,240,13.0,21.0,37,0.00,,FEW250,0.00,VWS V14.01,2013-04-04 18:25:00,
2013-04-04 13:30:00,54.6,28.9,29.96,North,360,11.0,23.0,37,0.00,,FEW250,0.00,VWS V14.01,2013-04-04 18:30:00,
2013-04-04 13:35:00,54.1,28.4,29.96,WSW,251,13.0,21.0,37,0.00,,FEW250,0.00,VWS V14.01,2013-04-04 18:35:00,
2013-04-04 13:40:00,54.5,28.8,29.96,SW,225,3.0,20.0,37,0.00,,FEW250,0.00,VWS V14.01,2013-04-04 18:40:00,
2013-04-04 13:45:00,54.9,29.1,29.95,North,360,5.0,18.0,37,0.00,,FEW250,0.00,VWS V14.01,2013-04-04 18:45:00,
2013-04-04 13:46:00,55.0,29.2,29.95,North,360,5.0,19.0,37,0.00,,FEW250,0.00,VWS V14.01,2013-04-04 18:46:00,
2013-04-04 13:50:00,55.2,28.7,29.95,WSW,245,17.0,19.0,36,0.00,,FEW250,0.00,VWS V14.01,2013-04-04 18:50:00,
2013-04-04 13:51:00,55.4,28.9,29.95,WNW,298,12.0,22.0,36,0.00,,FEW250,0.00,VWS V14.01,2013-04-04 18:51:00,
2013-04-04 13:55:00,55.2,28.7,29.94,SSW,206,11.0,18.0,36,0.00,,FEW250,0.00,VWS V14.01,2013-04-04 18:55:00,
2013-04-04 13:57:00,55.3,28.8,29.94,North,360,14.0,22.0,36,0.00,,FEW250,0.00,VWS V14.01,2013-04-04 18:57:00,
2013-04-04 14:00:00,55.3,29.5,29.94,SSW,209,17.0,22.0,37,0.00,,FEW250,0.00,VWS V14.01,2013-04-04 19:00:00,
2013-04-04 14:02:00,55.3,29.5,29.94,North,360,10.0,21.0,37,0.00,,FEW250,0.00,VWS V14.01,2013-04-04 19:02:00,
2013-04-04 14:05:00,55.3,29.5,29.94,West,261,13.0,18.0,37,0.00,,FEW250,0.00,VWS V14.01,2013-04-04 19:05:00,
2013-04-04 14:07:00,55.7,29.9,29.94,North,360,10.0,15.0,37,0.00,,FEW250,0.00,VWS V14.01,2013-04-04 19:07:00,
2013-04-04 14:10:00,55.9,29.4,29.94,North,360,11.0,15.0,36,0.00,,FEW250,0.00,VWS V14.01,2013-04-04 19:10:00,
2013-04-04 14:12:00,55.6,29.1,29.93,WSW,248,13.0,20.0,36,0.00,,FEW250,0.00,VWS V14.01,2013-04-04 19:12:00,
2013-04-04 14:15:00,55.6,29.8,29.93,North,360,8.0,20.0,37,0.00,,FEW250,0.00,VWS V14.01,2013-04-04 19:15:00,
2013-04-04 14:17:00,55.8,29.9,29.93,SW,214,13.0,17.0,37,0.00,,FEW250,0.00,VWS V14.01,2013-04-04 19:17:00,
2013-04-04 14:20:00,55.9,30.0,29.93,SW,228,8.0,20.0,37,0.00,,FEW250,0.00,VWS V14.01,2013-04-04 19:20:00,
2013-04-04 14:23:00,55.8,29.3,29.93,North,360,12.0,25.0,36,0.00,,FEW250,0.00,VWS V14.01,2013-04-04 19:23:00,
2013-04-04 14:25:00,55.7,29.9,29.93,North,360,15.0,25.0,37,0.00,,FEW250,0.00,VWS V14.01,2013-04-04 19:25:00,
2013-04-04 14:28:00,56.3,30.4,29.92,North,360,13.0,19.0,37,0.00,,FEW250,0.00,VWS V14.01,2013-04-04 19:28:00,
2013-04-04 14:30:00,56.4,29.8,29.92,SW,222,8.0,17.0,36,0.00,,FEW250,0.00,VWS V14.01,2013-04-04 19:30:00,
2013-04-04 14:33:00,56.4,29.8,29.93,North,360,7.0,19.0,36,0.00,,FEW250,0.00,VWS V14.01,2013-04-04 19:33:00,
2013-04-04 14:35:00,56.4,29.8,29.93,North,360,13.0,19.0,36,0.00,,FEW250,0.00,VWS V14.01,2013-04-04 19:35:00,
2013-04-04 14:38:00,56.3,31.0,29.92,North,360,7.0,21.0,38,0.00,,FEW250,0.00,VWS V14.01,2013-04-04 19:38:00,
2013-04-04 14:40:00,56.4,31.1,29.92,North,360,15.0,21.0,38,0.00,,FEW250,0.00,VWS V14.01,2013-04-04 19:40:00,
2013-04-04 14:43:00,56.6,30.6,29.92,North,360,15.0,20.0,37,0.00,,FEW250,0.00,VWS V14.01,2013-04-04 19:43:00,
2013-04-04 14:45:00,56.7,30.7,29.92,WSW,252,9.0,20.0,37,0.00,,FEW250,0.00,VWS V14.01,2013-04-04 19:45:00,
2013-04-04 14:48:00,56.6,30.6,29.92,SSE,165,4.0,22.0,37,0.00,,FEW250,0.00,VWS V14.01,2013-04-04 19:48:00,
2013-04-04 14:50:00,56.5,30.6,29.92,SSW,212,12.0,22.0,37,0.00,,FEW250,0.00,VWS V14.01,2013-04-04 19:50:00,
2013-04-04 14:54:00,56.8,30.8,29.92,North,360,7.0,18.0,37,0.00,,FEW250,0.00,VWS V14.01,2013-04-04 19:54:00,
2013-04-04 14:55:00,56.9,30.9,29.92,WNW,284,13.0,18.0,37,0.00,,FEW250,0.00,VWS V14.01,2013-04-04 19:55:00,
2013-04-04 14:59:00,57.1,31.1,29.91,North,360,10.0,20.0,37,0.00,,FEW250,0.00,VWS V14.01,2013-04-04 19:59:00,
2013-04-04 15:00:00,57.1,31.1,29.91,North,360,10.0,20.0,37,0.00,,FEW250,0.00,VWS V14.01,2013-04-04 20:00:00,
2013-04-04 15:04:00,57.5,31.5,29.91,WSW,254,14.0,20.0,37,0.00,,FEW250,0.00,VWS V14.01,2013-04-04 20:04:00,
2013-04-04 15:05:00,57.5,31.5,29.91,North,360,14.0,20.0,37,0.00,,FEW250,0.00,VWS V14.01,2013-04-04 20:05:00,
2013-04-04 15:09:00,57.2,31.2,29.91,North,360,11.0,20.0,37,0.00,,FEW250,0.00,VWS V14.01,2013-04-04 20:09:00,
2013-04-04 15:10:00,57.1,31.1,29.91,WSW,243,10.0,20.0,37,0.00,,FEW250,0.00,VWS V14.01,2013-04-04 20:10:00,
2013-04-04 15:14:00,57.2,31.2,29.91,North,360,6.0,24.0,37,0.00,,FEW250,0.00,VWS V14.01,2013-04-04 20:14:00,
2013-04-04 15:15:00,57.2,31.2,29.91,SW,233,5.0,24.0,37,0.00,,FEW250,0.00,VWS V14.01,2013-04-04 20:15:00,
2013-04-04 15:20:00,58.0,32.6,29.91,WSW,257,12.0,16.0,38,0.00,,FEW250,0.00,VWS V14.01,2013-04-04 20:20:00,
2013-04-04 15:25:00,57.6,31.5,29.91,North,360,2.0,17.0,37,0.00,,FEW250,0.00,VWS V14.01,2013-04-04 20:25:00,
2013-04-04 15:30:00,57.5,32.1,29.90,North,360,8.0,16.0,38,0.00,,FEW250,0.00,VWS V14.01,2013-04-04 20:30:00,
2013-04-04 15:35:00,57.2,31.8,29.91,North,360,8.0,16.0,38,0.00,,FEW250,0.00,VWS V14.01,2013-04-04 20:35:00,
2013-04-04 15:40:00,56.4,31.8,29.90,WSW,250,17.0,22.0,39,0.00,,FEW250,0.00,VWS V14.01,2013-04-04 20:40:00,
2013-04-04 15:45:00,56.2,31.6,29.90,North,360,9.0,19.0,39,0.00,,FEW250,0.00,VWS V14.01,2013-04-04 20:45:00,
2013-04-04 15:50:00,56.1,31.5,29.90,North,360,14.0,19.0,39,0.00,,FEW250,0.00,VWS V14.01,2013-04-04 20:50:00,
2013-04-04 15:51:00,56.1,31.5,29.90,SSW,207,12.0,19.0,39,0.00,,FEW250,0.00,VWS V14.01,2013-04-04 20:51:00,
2013-04-04 15:55:00,55.9,32.0,29.90,North,360,7.0,19.0,40,0.00,,FEW250,0.00,VWS V14.01,2013-04-04 20:55:00,
2013-04-04 15:56:00,55.9,32.0,29.90,SSW,208,9.0,19.0,40,0.00,,FEW250,0.00,VWS V14.01,2013-04-04 20:56:00,
2013-04-04 16:00:00,56.0,32.7,29.90,SW,232,5.0,14.0,41,0.00,,FEW250,0.00,VWS V14.01,2013-04-04 21:00:00,
2013-04-04 16:01:00,56.0,32.7,29.90,West,276,12.0,14.0,41,0.00,,FEW200,0.00,VWS V14.01,2013-04-04 21:01:00,
2013-04-04 16:05:00,56.0,32.7,29.90,West,263,10.0,14.0,41,0.00,,FEW250,0.00,VWS V14.01,2013-04-04 21:05:00,
2013-04-04 16:07:00,55.9,33.2,29.90,West,261,15.0,19.0,42,0.00,,FEW200,0.00,VWS V14.01,2013-04-04 21:07:00,
2013-04-04 16:10:00,55.8,32.5,29.90,West,275,5.0,19.0,41,0.00,,FEW250,0.00,VWS V14.01,2013-04-04 21:10:00,
2013-04-04 16:12:00,56.0,32.7,29.89,West,264,8.0,16.0,41,0.00,,FEW200,0.00,VWS V14.01,2013-04-04 21:12:00,
2013-04-04 16:15:00,56.2,33.4,29.89,North,360,5.0,16.0,42,0.00,,FEW250,0.00,VWS V14.01,2013-04-04 21:15:00,
2013-04-04 16:17:00,56.6,33.2,29.90,North,360,10.0,16.0,41,0.00,,FEW200,0.00,VWS V14.01,2013-04-04 21:17:00,
2013-04-04 16:20:00,56.6,32.6,29.90,SW,232,6.0,16.0,40,0.00,,FEW250,0.00,VWS V14.01,2013-04-04 21:20:00,
2013-04-04 16:22:00,56.4,33.0,29.89,WSW,251,2.0,16.0,41,0.00,,FEW200,0.00,VWS V14.01,2013-04-04 21:22:00,
2013-04-04 16:25:00,56.5,33.1,29.90,WSW,247,5.0,16.0,41,0.00,,FEW250,0.00,VWS V14.01,2013-04-04 21:25:00,
2013-04-04 16:27:00,56.3,32.9,29.89,North,360,4.0,16.0,41,0.00,,FEW200,0.00,VWS V14.01,2013-04-04 21:27:00,
2013-04-04 16:30:00,56.2,32.8,29.89,West,271,2.0,16.0,41,0.00,,FEW250,0.00,VWS V14.01,2013-04-04 21:30:00,
2013-04-04 16:33:00,55.9,33.2,29.89,WSW,254,6.0,14.0,42,0.00,,FEW200,0.00,VWS V14.01,2013-04-04 21:33:00,
2013-04-04 16:35:00,55.8,33.1,29.89,WSW,243,13.0,16.0,42,0.00,,FEW250,0.00,VWS V14.01,2013-04-04 21:35:00,
2013-04-04 16:38:00,55.5,33.4,29.89,West,269,11.0,18.0,43,0.00,,FEW200,0.00,VWS V14.01,2013-04-04 21:38:00,
2013-04-04 16:40:00,55.5,33.4,29.89,SW,229,9.0,18.0,43,0.00,,FEW250,0.00,VWS V14.01,2013-04-04 21:40:00,
2013-04-04 16:43:00,55.5,33.4,29.89,West,276,4.0,19.0,43,0.00,,FEW200,0.00,VWS V14.01,2013-04-04 21:43:00,
2013-04-04 16:45:00,55.5,33.4,29.89,West,279,8.0,19.0,43,0.00,,FEW250,0.00,VWS V14.01,2013-04-04 21:45:00,
2013-04-04 16:48:00,55.7,34.1,29.89,WSW,252,7.0,13.0,44,0.00,,FEW200,0.00,VWS V14.01,2013-04-04 21:48:00,
2013-04-04 16:50:00,55.7,33.6,29.89,North,360,3.0,13.0,43,0.00,,FEW250,0.00,VWS V14.01,2013-04-04 21:50:00,
2013-04-04 16:53:00,55.7,33.6,29.90,West,271,10.0,14.0,43,0.00,,FEW200,0.00,VWS V14.01,2013-04-04 21:53:00,
2013-04-04 16:55:00,55.7,34.1,29.90,West,264,14.0,14.0,44,0.00,,FEW250,0.00,VWS V14.01,2013-04-04 21:55:00,
2013-04-04 16:58:00,55.6,34.0,29.90,West,261,9.0,15.0,44,0.00,,FEW200,0.00,VWS V14.01,2013-04-04 21:58:00,
2013-04-04 17:00:00,55.6,34.0,29.90,WSW,242,10.0,14.0,44,0.00,,FEW250,0.00,VWS V14.01,2013-04-04 22:00:00,
2013-04-04 17:03:00,55.9,34.9,29.90,West,261,13.0,14.0,45,0.00,,BKN100,0.00,VWS V14.01,2013-04-04 22:03:00,
2013-04-04 17:05:00,55.9,34.3,29.90,WNW,288,10.0,14.0,44,0.00,,FEW250,0.00,VWS V14.01,2013-04-04 22:05:00,
2013-04-04 17:09:00,55.9,34.3,29.90,WSW,252,11.0,19.0,44,0.00,,BKN100,0.00,VWS V14.01,2013-04-04 22:09:00,
2013-04-04 17:10:00,55.9,34.3,29.90,SW,236,10.0,19.0,44,0.00,,FEW250,0.00,VWS V14.01,2013-04-04 22:10:00,
2013-04-04 17:14:00,55.3,33.8,29.90,West,259,6.0,21.0,44,0.00,,BKN100,0.00,VWS V14.01,2013-04-04 22:14:00,
2013-04-04 17:15:00,55.3,33.8,29.90,West,259,6.0,21.0,44,0.00,,SCT250,0.00,VWS V14.01,2013-04-04 22:15:00,
2013-04-04 17:19:00,55.3,33.8,29.90,West,271,5.0,17.0,44,0.00,,BKN100,0.00,VWS V14.01,2013-04-04 22:19:00,
2013-04-04 17:20:00,55.3,33.8,29.90,West,271,5.0,17.0,44,0.00,,FEW250,0.00,VWS V14.01,2013-04-04 22:20:00,
2013-04-04 17:24:00,55.3,33.8,29.90,West,267,11.0,17.0,44,0.00,,BKN100,0.00,VWS V14.01,2013-04-04 22:24:00,
2013-04-04 17:25:00,55.3,33.8,29.90,West,266,9.0,17.0,44,0.00,,FEW250,0.00,VWS V14.01,2013-04-04 22:25:00,
2013-04-04 17:29:00,55.1,33.6,29.90,West,259,10.0,16.0,44,0.00,,BKN100,0.00,VWS V14.01,2013-04-04 22:29:00,
2013-04-04 17:30:00,55.1,33.6,29.90,West,276,6.0,16.0,44,0.00,,FEW250,0.00,VWS V14.01,2013-04-04 22:30:00,
2013-04-04 17:35:00,55.2,34.2,29.90,West,269,7.0,14.0,45,0.00,,BKN100,0.00,VWS V14.01,2013-04-04 22:35:00,
2013-04-04 17:40:00,55.4,34.4,29.90,West,268,5.0,11.0,45,0.00,,BKN100,0.00,VWS V14.01,2013-04-04 22:40:00,
2013-04-04 17:45:00,56.3,34.7,29.90,WSW,242,7.0,12.0,44,0.00,,BKN100,0.00,VWS V14.01,2013-04-04 22:45:00,
2013-04-04 17:50:00,56.3,34.1,29.91,West,267,9.0,15.0,43,0.00,,BKN100,0.00,VWS V14.01,2013-04-04 22:50:00,
2013-04-04 17:55:00,56.1,33.9,29.90,West,261,10.0,14.0,43,0.00,,BKN100,0.00,VWS V14.01,2013-04-04 22:55:00,
2013-04-04 18:00:00,56.1,33.9,29.91,West,259,12.0,14.0,43,0.00,,FEW250,0.00,VWS V14.01,2013-04-04 23:00:00,
2013-04-04 18:01:00,56.0,33.8,29.90,West,264,9.0,15.0,43,0.00,,BKN090,0.00,VWS V14.01,2013-04-04 23:01:00,
2013-04-04 18:05:00,56.0,33.8,29.90,West,268,8.0,15.0,43,0.00,,FEW250,0.00,VWS V14.01,2013-04-04 23:05:00,
2013-04-04 18:06:00,55.9,33.8,29.90,West,278,6.0,18.0,43,0.00,,BKN090,0.00,VWS V14.01,2013-04-04 23:06:00,
2013-04-04 18:10:00,55.8,33.7,29.90,West,259,8.0,21.0,43,0.00,,FEW250,0.00,VWS V14.01,2013-04-04 23:10:00,
2013-04-04 18:11:00,55.8,33.7,29.90,West,263,11.0,21.0,43,0.00,,BKN090,0.00,VWS V14.01,2013-04-04 23:11:00,
2013-04-04 18:15:00,55.8,33.7,29.90,WSW,245,6.0,20.0,43,0.00,,FEW250,0.00,VWS V14.01,2013-04-04 23:15:00,
2013-04-04 18:16:00,55.8,33.7,29.90,West,275,7.0,16.0,43,0.00,,BKN090,0.00,VWS V14.01,2013-04-04 23:16:00,
2013-04-04 18:20:00,55.8,33.7,29.90,WSW,252,9.0,16.0,43,0.00,,FEW250,0.00,VWS V14.01,2013-04-04 23:20:00,
2013-04-04 18:22:00,55.8,33.7,29.90,West,270,7.0,14.0,43,0.00,,BKN090,0.00,VWS V14.01,2013-04-04 23:22:00,
2013-04-04 18:25:00,55.7,33.6,29.90,West,259,13.0,18.0,43,0.00,,FEW250,0.00,VWS V14.01,2013-04-04 23:25:00,
2013-04-04 18:27:00,55.6,34.0,29.90,SW,236,3.0,18.0,44,0.00,,BKN090,0.00,VWS V14.01,2013-04-04 23:27:00,
2013-04-04 18:30:00,55.5,34.0,29.90,WSW,252,9.0,14.0,44,0.00,,FEW250,0.00,VWS V14.01,2013-04-04 23:30:00,
2013-04-04 18:32:00,55.4,33.9,29.90,West,265,6.0,15.0,44,0.00,,BKN090,0.00,VWS V14.01,2013-04-04 23:32:00,
2013-04-04 18:35:00,55.3,33.8,29.90,WSW,258,4.0,15.0,44,0.00,,FEW250,0.00,VWS V14.01,2013-04-04 23:35:00,
2013-04-04 18:37:00,55.3,33.8,29.90,West,261,7.0,11.0,44,0.00,,BKN090,0.00,VWS V14.01,2013-04-04 23:37:00,
2013-04-04 18:40:00,55.2,34.2,29.90,West,275,1.0,11.0,45,0.00,,FEW250,0.00,VWS V14.01,2013-04-04 23:40:00,
2013-04-04 18:43:00,55.0,34.1,29.90,West,264,3.0,11.0,45,0.00,,BKN090,0.00,VWS V14.01,2013-04-04 23:43:00,
2013-04-04 18:45:00,55.0,34.6,29.90,West,263,8.0,11.0,46,0.00,,FEW250,0.00,VWS V14.01,2013-04-04 23:45:00,
2013-04-04 18:48:00,54.9,34.5,29.90,WNW,287,12.0,13.0,46,0.00,,BKN090,0.00,VWS V14.01,2013-04-04 23:48:00,
2013-04-04 18:50:00,54.8,34.4,29.90,West,264,9.0,15.0,46,0.00,,FEW250,0.00,VWS V14.01,2013-04-04 23:50:00,
2013-04-04 18:53:00,54.7,34.3,29.90,West,272,6.0,14.0,46,0.00,,BKN090,0.00,VWS V14.01,2013-04-04 23:53:00,
2013-04-04 18:55:00,54.6,34.2,29.90,WNW,292,5.0,12.0,46,0.00,,FEW250,0.00,VWS V14.01,2013-04-04 23:55:00,
2013-04-04 18:58:00,54.4,34.6,29.90,West,272,6.0,10.0,47,0.00,,BKN090,0.00,VWS V14.01,2013-04-04 23:58:00,
2013-04-04 19:00:00,54.3,34.5,29.90,West,273,5.0,10.0,47,0.00,,FEW250,0.00,VWS V14.01,2013-04-05 00:00:00,
2013-04-04 19:03:00,54.1,34.9,29.91,WNW,298,10.0,15.0,48,0.00,,SCT250,0.00,VWS V14.01,2013-04-05 00:03:00,
2013-04-04 19:05:00,54.0,34.8,29.91,WNW,295,5.0,15.0,48,0.00,,FEW250,0.00,VWS V14.01,2013-04-05 00:05:00,
2013-04-04 19:09:00,53.4,34.7,29.91,NW,319,6.0,13.0,49,0.00,,SCT250,0.00,VWS V14.01,2013-04-05 00:09:00,
2013-04-04 19:10:00,53.4,34.7,29.91,North,360,6.0,13.0,49,0.00,,FEW250,0.00,VWS V14.01,2013-04-05 00:10:00,
2013-04-04 19:14:00,53.0,34.9,29.91,WNW,288,4.0,12.0,50,0.00,,SCT250,0.00,VWS V14.01,2013-04-05 00:14:00,
2013-04-04 19:15:00,53.0,34.9,29.91,WNW,301,5.0,12.0,50,0.00,,FEW250,0.00,VWS V14.01,2013-04-05 00:15:00,
2013-04-04 19:19:00,52.7,35.1,29.91,WNW,289,9.0,11.0,51,0.00,,SCT250,0.00,VWS V14.01,2013-04-05 00:19:00,
2013-04-04 19:20:00,52.7,35.1,29.91,WNW,289,9.0,11.0,51,0.00,,FEW250,0.00,VWS V14.01,2013-04-05 00:20:00,
2013-04-04 19:24:00,52.3,35.2,29.91,WNW,294,4.0,9.0,52,0.00,,SCT250,0.00,VWS V14.01,2013-04-05 00:24:00,
2013-04-04 19:25:00,52.3,35.2,29.91,WNW,294,4.0,9.0,52,0.00,,FEW250,0.00,VWS V14.01,2013-04-05 00:25:00,
2013-04-04 19:29:00,52.0,35.4,29.91,NNW,329,4.0,4.0,53,0.00,,SCT250,0.00,VWS V14.01,2013-04-05 00:29:00,
2013-04-04 19:30:00,52.0,35.4,29.91,West,280,4.0,5.0,53,0.00,,FEW250,0.00,VWS V14.01,2013-04-05 00:30:00,
2013-04-04 19:34:00,51.9,35.3,29.91,NW,304,1.0,13.0,53,0.00,,SCT250,0.00,VWS V14.01,2013-04-05 00:34:00,
2013-04-04 19:35:00,51.9,35.3,29.91,NW,306,4.0,13.0,53,0.00,,FEW250,0.00,VWS V14.01,2013-04-05 00:35:00,
2013-04-04 19:40:00,51.6,35.5,29.91,WNW,296,2.0,12.0,54,0.00,,SCT250,0.00,VWS V14.01,2013-04-05 00:40:00,
2013-04-04 19:45:00,51.3,35.7,29.91,WNW,303,4.0,10.0,55,0.00,,SCT250,0.00,VWS V14.01,2013-04-05 00:45:00,
2013-04-04 19:50:00,51.0,35.4,29.91,WNW,293,3.0,12.0,55,0.00,,SCT250,0.00,VWS V14.01,2013-04-05 00:50:00,
2013-04-04 19:55:00,50.6,35.9,29.92,West,274,3.0,8.0,57,0.00,,SCT250,0.00,VWS V14.01,2013-04-05 00:55:00,
2013-04-04 20:00:00,50.4,35.8,29.91,NW,306,1.0,5.0,57,0.00,,FEW250,0.00,VWS V14.01,2013-04-05 01:00:00,
2013-04-04 20:01:00,50.3,35.7,29.92,WNW,287,4.0,7.0,57,0.00,,SCT250,0.00,VWS V14.01,2013-04-05 01:01:00,
2013-04-04 20:05:00,50.1,35.5,29.92,WNW,289,1.0,7.0,57,0.00,,FEW250,0.00,VWS V14.01,2013-04-05 01:05:00,
2013-04-04 20:06:00,50.0,35.4,29.91,WNW,290,2.0,5.0,57,0.00,,SCT250,0.00,VWS V14.01,2013-04-05 01:06:00,
2013-04-04 20:10:00,49.8,35.2,29.91,WNW,298,2.0,4.0,57,0.00,,FEW250,0.00,VWS V14.01,2013-04-05 01:10:00,
2013-04-04 20:11:00,49.8,35.2,29.92,WNW,290,3.0,6.0,57,0.00,,SCT250,0.00,VWS V14.01,2013-04-05 01:11:00,
2013-04-04 20:15:00,49.7,35.1,29.92,NW,307,3.0,6.0,57,0.00,,FEW250,0.00,VWS V14.01,2013-04-05 01:15:00,
2013-04-04 20:16:00,49.6,35.5,29.92,NW,311,2.0,12.0,58,0.00,,SCT250,0.00,VWS V14.01,2013-04-05 01:16:00,
2013-04-04 20:20:00,49.5,34.9,29.92,NNW,333,4.0,11.0,57,0.00,,FEW250,0.00,VWS V14.01,2013-04-05 01:20:00,
2013-04-04 20:21:00,49.4,34.8,29.92,North,360,2.0,12.0,57,0.00,,SCT250,0.00,VWS V14.01,2013-04-05 01:21:00,
2013-04-04 20:25:00,49.3,34.7,29.92,WNW,302,6.0,14.0,57,0.00,,FEW250,0.00,VWS V14.01,2013-04-05 01:25:00,
2013-04-04 20:26:00,49.1,35.0,29.92,North,360,10.0,12.0,58,0.00,,SCT250,0.00,VWS V14.01,2013-04-05 01:26:00,
2013-04-04 20:30:00,49.0,34.5,29.92,WNW,302,7.0,12.0,57,0.00,,FEW250,0.00,VWS V14.01,2013-04-05 01:30:00,
2013-04-04 20:32:00,48.9,34.8,29.92,NW,326,2.0,12.0,58,0.00,,SCT250,0.00,VWS V14.01,2013-04-05 01:32:00,
2013-04-04 20:35:00,48.8,34.7,29.92,NW,320,3.0,10.0,58,0.00,,FEW250,0.00,VWS V14.01,2013-04-05 01:35:00,
2013-04-04 20:37:00,48.6,34.5,29.93,NW,306,3.0,10.0,58,0.00,,SCT250,0.00,VWS V14.01,2013-04-05 01:37:00,
2013-04-04 20:40:00,48.5,34.4,29.93,North,360,3.0,8.0,58,0.00,,FEW250,0.00,VWS V14.01,2013-04-05 01:40:00,
2013-04-04 20:42:00,48.3,34.7,29.93,WNW,303,0.0,6.0,59,0.00,,SCT250,0.00,VWS V14.01,2013-04-05 01:42:00,
2013-04-04 20:45:00,48.2,34.6,29.93,NW,305,0.0,6.0,59,0.00,,FEW250,0.00,VWS V14.01,2013-04-05 01:45:00,
2013-04-04 20:47:00,48.0,34.4,29.93,WNW,302,7.0,9.0,59,0.00,,SCT250,0.00,VWS V14.01,2013-04-05 01:47:00,
2013-04-04 20:50:00,47.9,34.3,29.93,WNW,296,3.0,9.0,59,0.00,,FEW250,0.00,VWS V14.01,2013-04-05 01:50:00,
2013-04-04 20:53:00,47.7,35.3,29.93,WNW,296,1.0,4.0,62,0.00,,SCT250,0.00,VWS V14.01,2013-04-05 01:53:00,
2013-04-04 20:55:00,47.7,34.1,29.93,WNW,300,3.0,4.0,59,0.00,,FEW250,0.00,VWS V14.01,2013-04-05 01:55:00,
2013-04-04 20:58:00,47.3,34.1,29.93,WNW,294,1.0,5.0,60,0.00,,SCT250,0.00,VWS V14.01,2013-04-05 01:58:00,
2013-04-04 21:00:00,47.3,34.1,29.93,WNW,302,3.0,5.0,60,0.00,,FEW250,0.00,VWS V14.01,2013-04-05 02:00:00,
2013-04-04 21:04:00,47.1,34.4,29.93,NW,306,3.0,5.0,61,0.00,,CLR,0.00,VWS V14.01,2013-04-05 02:04:00,
2013-04-04 21:05:00,47.1,33.9,29.93,NW,305,2.0,4.0,60,0.00,,FEW250,0.00,VWS V14.01,2013-04-05 02:05:00,
2013-04-04 21:09:00,46.9,33.8,29.93,NW,313,9.0,9.0,60,0.00,,CLR,0.00,VWS V14.01,2013-04-05 02:09:00,
2013-04-04 21:10:00,46.9,33.8,29.93,NW,313,3.0,9.0,60,0.00,,FEW250,0.00,VWS V14.01,2013-04-05 02:10:00,
2013-04-04 21:14:00,46.7,33.2,29.94,North,360,6.0,9.0,59,0.00,,CLR,0.00,VWS V14.01,2013-04-05 02:14:00,
2013-04-04 21:15:00,46.7,33.2,29.94,NW,306,7.0,9.0,59,0.00,,FEW250,0.00,VWS V14.01,2013-04-05 02:15:00,
2013-04-04 21:19:00,46.7,33.2,29.94,NW,317,5.0,11.0,59,0.00,,CLR,0.00,VWS V14.01,2013-04-05 02:19:00,
2013-04-04 21:20:00,46.7,33.2,29.94,North,360,8.0,11.0,59,0.00,,FEW250,0.00,VWS V14.01,2013-04-05 02:20:00,
2013-04-04 21:24:00,46.6,32.6,29.94,NNW,327,3.0,9.0,58,0.00,,CLR,0.00,VWS V14.01,2013-04-05 02:24:00,
2013-04-04 21:25:00,46.6,32.6,29.94,NNW,327,3.0,9.0,58,0.00,,FEW250,0.00,VWS V14.01,2013-04-05 02:25:00,
2013-04-04 21:29:00,46.5,32.5,29.94,NW,312,3.0,9.0,58,0.00,,CLR,0.00,VWS V14.01,2013-04-05 02:29:00,
2013-04-04 21:30:00,46.5,32.5,29.94,NW,312,3.0,9.0,58,0.00,,FEW250,0.00,VWS V14.01,2013-04-05 02:30:00,
2013-04-04 21:34:00,46.4,32.4,29.94,NW,308,3.0,9.0,58,0.00,,CLR,0.00,VWS V14.01,2013-04-05 02:34:00,
2013-04-04 21:35:00,46.4,32.4,29.94,NW,308,3.0,9.0,58,0.00,,FEW250,0.00,VWS V14.01,2013-04-05 02:35:00,
2013-04-04 21:39:00,46.3,32.3,29.94,WNW,288,4.0,8.0,58,0.00,,CLR,0.00,VWS V14.01,2013-04-05 02:39:00,
2013-04-04 21:40:00,46.3,32.3,29.94,WNW,288,4.0,8.0,58,0.00,,FEW250,0.00,VWS V14.01,2013-04-05 02:40:00,
2013-04-04 21:44:00,46.1,32.2,29.94,NW,309,3.0,11.0,58,0.00,,CLR,0.00,VWS V14.01,2013-04-05 02:44:00,
2013-04-04 21:45:00,46.1,32.2,29.94,NW,309,3.0,11.0,58,0.00,,FEW250,0.00,VWS V14.01,2013-04-05 02:45:00,
2013-04-04 21:49:00,45.9,32.0,29.94,NW,309,3.0,11.0,58,0.00,,CLR,0.00,VWS V14.01,2013-04-05 02:49:00,
2013-04-04 21:50:00,45.9,32.0,29.94,NW,309,3.0,11.0,58,0.00,,FEW250,0.00,VWS V14.01,2013-04-05 02:50:00,
2013-04-04 21:54:00,45.8,31.9,29.94,WNW,289,4.0,9.0,58,0.00,,CLR,0.00,VWS V14.01,2013-04-05 02:54:00,
2013-04-04 21:55:00,45.8,31.9,29.94,WNW,289,4.0,9.0,58,0.00,,FEW250,0.00,VWS V14.01,2013-04-05 02:55:00,
2013-04-04 21:59:00,45.5,31.6,29.94,WNW,297,4.0,10.0,58,0.00,,CLR,0.00,VWS V14.01,2013-04-05 02:59:00,
2013-04-04 22:00:00,45.5,31.6,29.94,WNW,297,4.0,10.0,58,0.00,,FEW250,0.00,VWS V14.01,2013-04-05 03:00:00,
2013-04-04 22:04:00,45.3,31.4,29.95,WNW,300,3.0,12.0,58,0.00,,CLR,0.00,VWS V14.01,2013-04-05 03:04:00,
2013-04-04 22:05:00,45.3,31.4,29.95,WNW,300,3.0,12.0,58,0.00,,FEW250,0.00,VWS V14.01,2013-04-05 03:05:00,
2013-04-04 22:09:00,45.1,31.6,29.95,NW,306,8.0,12.0,59,0.00,,CLR,0.00,VWS V14.01,2013-04-05 03:09:00,
2013-04-04 22:10:00,45.1,31.6,29.95,WNW,302,4.0,12.0,59,0.00,,FEW250,0.00,VWS V14.01,2013-04-05 03:10:00,
2013-04-04 22:14:00,45.1,31.2,29.95,North,360,4.0,11.0,58,0.00,,CLR,0.00,VWS V14.01,2013-04-05 03:14:00,
2013-04-04 22:15:00,45.0,31.1,29.95,NW,306,3.0,11.0,58,0.00,,FEW250,0.00,VWS V14.01,2013-04-05 03:15:00,
2013-04-04 22:19:00,45.0,31.1,29.95,NW,306,3.0,11.0,58,0.00,,CLR,0.00,VWS V14.01,2013-04-05 03:19:00,
2013-04-04 22:20:00,45.0,31.1,29.95,WNW,300,6.0,12.0,58,0.00,,FEW250,0.00,VWS V14.01,2013-04-05 03:20:00,
2013-04-04 22:25:00,44.9,31.0,29.95,NW,306,4.0,12.0,58,0.00,,CLR,0.00,VWS V14.01,2013-04-05 03:25:00,
2013-04-04 22:30:00,44.8,30.9,29.95,North,360,7.0,12.0,58,0.00,,CLR,0.00,VWS V14.01,2013-04-05 03:30:00,
2013-04-04 22:35:00,44.9,30.6,29.95,NW,306,5.0,14.0,57,0.00,,CLR,0.00,VWS V14.01,2013-04-05 03:35:00,
2013-04-04 22:40:00,44.7,30.4,29.95,WNW,290,5.0,12.0,57,0.00,,CLR,0.00,VWS V14.01,2013-04-05 03:40:00,
2013-04-04 22:45:00,44.7,30.4,29.95,NW,309,8.0,13.0,57,0.00,,FEW250,0.00,VWS V14.01,2013-04-05 03:45:00,
2013-04-04 22:46:00,44.7,30.4,29.95,North,360,11.0,13.0,57,0.00,,CLR,0.00,VWS V14.01,2013-04-05 03:46:00,
2013-04-04 22:50:00,44.7,30.0,29.95,WNW,302,10.0,14.0,56,0.00,,FEW250,0.00,VWS V14.01,2013-04-05 03:50:00,
2013-04-04 22:51:00,44.7,30.0,29.95,WNW,300,8.0,14.0,56,0.00,,CLR,0.00,VWS V14.01,2013-04-05 03:51:00,
2013-04-04 22:55:00,44.6,30.3,29.95,West,278,7.0,14.0,57,0.00,,FEW250,0.00,VWS V14.01,2013-04-05 03:55:00,
2013-04-04 22:56:00,44.5,30.2,29.95,North,360,8.0,14.0,57,0.00,,CLR,0.00,VWS V14.01,2013-04-05 03:56:00,
2013-04-04 23:00:00,44.5,30.2,29.95,WNW,302,3.0,12.0,57,0.00,,CLR,0.00,VWS V14.01,2013-04-05 04:00:00,
2013-04-04 23:02:00,44.4,30.1,29.95,WNW,285,6.0,12.0,57,0.00,,SCT250,0.00,VWS V14.01,2013-04-05 04:02:00,
2013-04-04 23:04:00,44.4,30.1,29.95,WNW,293,8.0,12.0,57,0.00,,SCT250,0.00,VWS V14.01,2013-04-05 04:04:00,
2013-04-04 23:05:00,44.4,30.1,29.95,WNW,293,8.0,12.0,57,0.00,,FEW250,0.00,VWS V14.01,2013-04-05 04:05:00,
2013-04-04 23:09:00,44.3,30.0,29.95,NW,308,5.0,14.0,57,0.00,,SCT250,0.00,VWS V14.01,2013-04-05 04:09:00,
2013-04-04 23:10:00,44.3,30.0,29.95,NW,308,5.0,14.0,57,0.00,,FEW250,0.00,VWS V14.01,2013-04-05 04:10:00,
2013-04-04 23:15:00,44.1,29.9,29.95,WNW,286,8.0,11.0,57,0.00,,SCT250,0.00,VWS V14.01,2013-04-05 04:15:00,
2013-04-04 23:20:00,43.9,29.7,29.95,NW,313,4.0,14.0,57,0.00,,SCT250,0.00,VWS V14.01,2013-04-05 04:20:00,
2013-04-04 23:25:00,43.8,29.6,29.95,NW,312,3.0,15.0,57,0.00,,SCT250,0.00,VWS V14.01,2013-04-05 04:25:00,
2013-04-04 23:30:00,43.6,29.4,29.95,WNW,288,4.0,14.0,57,0.00,,SCT250,0.00,VWS V14.01,2013-04-05 04:30:00,
2013-04-04 23:35:00,43.5,29.3,29.95,NW,304,6.0,11.0,57,0.00,,SCT250,0.00,VWS V14.01,2013-04-05 04:35:00,
2013-04-04 23:40:00,43.3,29.5,29.95,NNW,327,4.0,13.0,58,0.00,,SCT250,0.00,VWS V14.01,2013-04-05 04:40:00,
2013-04-04 23:45:00,43.2,29.4,29.95,NW,305,6.0,11.0,58,0.00,,FEW250,0.00,VWS V14.01,2013-04-05 04:45:00,
2013-04-04 23:46:00,43.2,29.4,29.95,NW,309,4.0,11.0,58,0.00,,SCT250,0.00,VWS V14.01,2013-04-05 04:46:00,
2013-04-04 23:50:00,43.1,29.3,29.95,NW,317,4.0,11.0,58,0.00,,FEW250,0.00,VWS V14.01,2013-04-05 04:50:00,
2013-04-04 23:51:00,43.1,29.3,29.96,WNW,298,3.0,14.0,58,0.00,,SCT250,0.00,VWS V14.01,2013-04-05 04:51:00,
2013-04-04 23:55:00,43.0,29.2,29.96,WNW,290,8.0,12.0,58,0.00,,FEW250,0.00,VWS V14.01,2013-04-05 04:55:00,
2013-04-04 23:56:00,43.0,29.2,29.96,North,360,16.0,16.0,58,0.00,,SCT250,0.00,VWS V14.01,2013-04-05 04:56:00,